User: anonymous   Login
Location: Gad�tanya
(48.0500°N, 20.8500°E)
Time: 21:04:11
(UTC+00:00)
Language:

CZ-4 R/B - Orbit

View from above orbital plane
View from above orbital plane
View from above satellite
View from above satellite

Ground track
Ground track

The orbit data is extracted from the following two-line orbital elements,

1 28059U 03049C   20269.82206248 +.00000027 +00000-0 +18284-4 0  9997
2 28059 098.4818 187.4678 0049778 190.4624 169.5540 14.52611004897408
Epoch (UTC): 25 September 2020 19:43:46
Eccentricity: 0.0049778
inclination: 98.4818°
perigee height: 682 km
apogee height: 752 km
right ascension of ascending node: 187.4678°
argument of perigee: 190.4624°
revolutions per day: 14.52611004
mean anomaly at epoch: 169.5540°
orbit number at epoch: 89740

The dashed part of the orbit path shows where the satellite is in the earth's shadow,  

DLR